When you browse on this site, cookies collect data to enhance your experience and personalize the content and advertising you see.
Visit our Privacy Policy to learn more. By continuing to use the site, you agree to this use of cookies and data.
  • în România
  • Lista ţărilor
  • Pe 7 zile
  • Temperatura apei
  • Hartă satelitară
  • Meteo pe hartă
  • Widget-uri
  • user-avatar
    Intrare

    Meteo pe oră la Barra

    Astăzi, 21 Martie, Joi

    Timp Temperatura Precipitaţii Vânt Presiune Umiditate
    00:00 +25°C° 0.4 mm 1 m/s 746 mmHg 96%
    01:00 +25°C° 0.4 mm 1 m/s 746 mmHg 96%
    02:00 +25°C° 0.5 mm 1 m/s 746 mmHg 96%
    03:00 +25°C° 0.5 mm 1 m/s 746 mmHg 96%
    04:00 +25°C° 0 mm 1 m/s 745 mmHg 97%
    05:00 +25°C° 0.8 mm 1 m/s 746 mmHg 97%
    06:00 +25°C° 0.8 mm 1 m/s 746 mmHg 96%
    07:00 +25°C° 0.8 mm 1 m/s 746 mmHg 96%
    08:00 +26°C° 0.4 mm 1 m/s 747 mmHg 92%
    09:00 +27°C° 0.4 mm 1 m/s 747 mmHg 89%
    10:00 +29°C° 0 mm 1 m/s 747 mmHg 80%
    11:00 +29°C° 0.5 mm 1 m/s 747 mmHg 77%
    12:00 +30°C° 0.5 mm 2 m/s 747 mmHg 74%
    13:00 +30°C° 0.5 mm 2 m/s 746 mmHg 70%
    14:00 +29°C° 0.3 mm 2 m/s 746 mmHg 73%
    15:00 +29°C° 0.3 mm 2 m/s 746 mmHg 75%
    16:00 +27°C° 0 mm 2 m/s 746 mmHg 81%
    17:00 +26°C° 0.2 mm 2 m/s 746 mmHg 85%
    18:00 +25°C° 0.2 mm 2 m/s 747 mmHg 88%
    19:00 +24°C° 0.2 mm 2 m/s 747 mmHg 91%
    20:00 +24°C° 0.6 mm 2 m/s 747 mmHg 92%
    21:00 +24°C° 0.6 mm 2 m/s 748 mmHg 93%
    22:00 +24°C° 0 mm 1 m/s 748 mmHg 95%
    23:00 +24°C° 1.8 mm 1 m/s 748 mmHg 96%

    Mâine, 22 Martie, Vineri

    Timp Temperatura Precipitaţii Vânt Presiune Umiditate
    00:00 +24°C° 1.8 mm 1 m/s 747 mmHg 97%
    01:00 +24°C° 1.8 mm 1 m/s 747 mmHg 98%
    02:00 +24°C° 3.1 mm 2 m/s 747 mmHg 98%
    03:00 +24°C° 3.1 mm 2 m/s 747 mmHg 98%
    04:00 +24°C° 3.1 mm 3 m/s 746 mmHg 98%
    05:00 +25°C° 2 mm 3 m/s 746 mmHg 98%
    06:00 +25°C° 2 mm 3 m/s 747 mmHg 98%
    07:00 +25°C° 2 mm 3 m/s 747 mmHg 98%
    08:00 +25°C° 1.3 mm 3 m/s 747 mmHg 97%
    09:00 +26°C° 1.3 mm 3 m/s 747 mmHg 97%
    10:00 +26°C° 1.3 mm 3 m/s 748 mmHg 96%
    11:00 +26°C° 1.9 mm 3 m/s 747 mmHg 96%
    12:00 +26°C° 1.9 mm 3 m/s 747 mmHg 96%
    13:00 +26°C° 1.9 mm 3 m/s 747 mmHg 96%
    14:00 +26°C° 2.2 mm 3 m/s 747 mmHg 96%
    15:00 +25°C° 2.2 mm 3 m/s 746 mmHg 97%
    16:00 +25°C° 2.2 mm 3 m/s 746 mmHg 97%
    17:00 +25°C° 1.6 mm 3 m/s 746 mmHg 97%
    18:00 +25°C° 1.6 mm 3 m/s 747 mmHg 97%
    19:00 +25°C° 1.6 mm 3 m/s 747 mmHg 97%
    20:00 +25°C° 1.7 mm 3 m/s 748 mmHg 97%
    21:00 +25°C° 1.7 mm 3 m/s 748 mmHg 97%
    22:00 +25°C° 1.7 mm 3 m/s 748 mmHg 97%
    23:00 +25°C° 0.6 mm 3 m/s 748 mmHg 97%

    Poimâine, 23 Martie, Sâmbătă

    Timp Temperatura Precipitaţii Vânt Presiune Umiditate
    00:00 +25°C° 0.6 mm 3 m/s 748 mmHg 97%
    01:00 +25°C° 0.6 mm 3 m/s 747 mmHg 97%
    02:00 +25°C° 0.4 mm 3 m/s 747 mmHg 97%
    03:00 +25°C° 0.4 mm 3 m/s 747 mmHg 97%
    04:00 +25°C° 0.4 mm 3 m/s 747 mmHg 97%
    05:00 +25°C° 0.2 mm 3 m/s 747 mmHg 97%
    06:00 +25°C° 0.2 mm 2 m/s 747 mmHg 96%
    07:00 +25°C° 0.2 mm 2 m/s 748 mmHg 96%
    08:00 +26°C° 0.1 mm 2 m/s 748 mmHg 93%
    09:00 +27°C° 0.1 mm 3 m/s 748 mmHg 89%
    10:00 +28°C° 0.1 mm 3 m/s 749 mmHg 86%
    11:00 +29°C° 0.3 mm 3 m/s 748 mmHg 82%
    12:00 +29°C° 0.3 mm 3 m/s 748 mmHg 79%
    13:00 +30°C° 0.3 mm 3 m/s 747 mmHg 76%
    14:00 +29°C° 0.3 mm 3 m/s 747 mmHg 77%
    15:00 +29°C° 0.3 mm 3 m/s 746 mmHg 78%
    16:00 +29°C° 0.3 mm 3 m/s 746 mmHg 79%
    17:00 +28°C° 0.3 mm 3 m/s 746 mmHg 84%
    18:00 +27°C° 0.3 mm 2 m/s 747 mmHg 89%
    19:00 +26°C° 0.3 mm 2 m/s 747 mmHg 94%
    20:00 +26°C° 0.2 mm 2 m/s 748 mmHg 94%
    21:00 +25°C° 0.2 mm 2 m/s 748 mmHg 95%
    22:00 +25°C° 0.2 mm 2 m/s 749 mmHg 95%
    23:00 +25°C° 0.2 mm 2 m/s 748 mmHg 95%

    24 Martie, Duminică

    Timp Temperatura Precipitaţii Vânt Presiune Umiditate
    00:00 +25°C° 0.2 mm 2 m/s 748 mmHg 96%
    01:00 +25°C° 0.2 mm 1 m/s 748 mmHg 96%
    02:00 +25°C° 0.2 mm 1 m/s 748 mmHg 96%
    03:00 +25°C° 0.2 mm 1 m/s 747 mmHg 96%
    04:00 +25°C° 0.2 mm 1 m/s 747 mmHg 96%
    05:00 +25°C° 0.2 mm 1 m/s 747 mmHg 96%
    06:00 +26°C° 0.2 mm 1 m/s 748 mmHg 96%
    07:00 +26°C° 0.2 mm 1 m/s 748 mmHg 96%
    08:00 +27°C° 0.4 mm 1 m/s 748 mmHg 92%
    09:00 +28°C° 0.4 mm 2 m/s 749 mmHg 88%
    10:00 +29°C° 0.4 mm 2 m/s 749 mmHg 83%
    11:00 +30°C° 0.6 mm 2 m/s 749 mmHg 79%
    12:00 +30°C° 0.6 mm 2 m/s 748 mmHg 75%
    13:00 +31°C° 0.6 mm 2 m/s 747 mmHg 71%
    14:00 +31°C° 0.2 mm 2 m/s 747 mmHg 72%
    15:00 +30°C° 0.2 mm 2 m/s 747 mmHg 73%
    16:00 +30°C° 0.2 mm 2 m/s 746 mmHg 74%
    17:00 +29°C° 0.2 mm 2 m/s 747 mmHg 80%
    18:00 +28°C° 0.2 mm 2 m/s 747 mmHg 86%
    19:00 +26°C° 0.2 mm 1 m/s 748 mmHg 92%
    20:00 +26°C° 0.2 mm 1 m/s 748 mmHg 93%
    21:00 +26°C° 0.2 mm 1 m/s 749 mmHg 94%
    22:00 +26°C° 0.2 mm 1 m/s 749 mmHg 95%
    23:00 +26°C° 0.2 mm 1 m/s 749 mmHg 96%

    25 Martie, Luni

    Timp Temperatura Precipitaţii Vânt Presiune Umiditate
    00:00 +26°C° 0.2 mm 1 m/s 748 mmHg 96%
    01:00 +24°C° 0.2 mm 0 m/s 748 mmHg 96%
    02:00 +26°C° 0.1 mm 1 m/s 748 mmHg 97%
    03:00 +25°C° 0.1 mm 1 m/s 748 mmHg 97%
    04:00 +25°C° 0.1 mm 1 m/s 747 mmHg 97%
    05:00 +25°C° 0.1 mm 1 m/s 748 mmHg 97%
    06:00 +26°C° 0.1 mm 1 m/s 748 mmHg 96%
    07:00 +26°C° 0.1 mm 1 m/s 749 mmHg 96%
    08:00 +28°C° 0.1 mm 1 m/s 749 mmHg 88%
    09:00 +27°C° 0.1 mm 0 m/s 749 mmHg 79%
    10:00 +29°C° 0.1 mm 0 m/s 749 mmHg 71%
    11:00 +32°C° 0 mm 1 m/s 749 mmHg 67%
    12:00 +32°C° 0 mm 1 m/s 748 mmHg 63%
    13:00 +34°C° 0 mm 2 m/s 748 mmHg 59%
    14:00 +32°C° 0 mm 2 m/s 747 mmHg 61%
    15:00 +32°C° 0 mm 2 m/s 747 mmHg 63%
    16:00 +31°C° 0 mm 2 m/s 746 mmHg 65%
    17:00 +30°C° 0 mm 2 m/s 747 mmHg 72%
    18:00 +28°C° 0 mm 1 m/s 747 mmHg 80%
    19:00 +27°C° 0 mm 1 m/s 747 mmHg 87%
    20:00 +26°C° 0 mm 1 m/s 748 mmHg 89%
    21:00 +26°C° 0 mm 1 m/s 749 mmHg 91%
    22:00 +26°C° 0 mm 1 m/s 749 mmHg 93%
    23:00 +25°C° 0 mm 1 m/s 749 mmHg 94%

    26 Martie, Marţi

    Timp Temperatura Precipitaţii Vânt Presiune Umiditate
    00:00 +25°C° 0 mm 1 m/s 748 mmHg 95%
    01:00 +25°C° 0 mm 1 m/s 748 mmHg 96%
    02:00 +25°C° 0 mm 1 m/s 748 mmHg 96%
    03:00 +25°C° 0 mm 1 m/s 747 mmHg 97%
    04:00 +24°C° 0 mm 1 m/s 747 mmHg 97%
    05:00 +25°C° 0 mm 1 m/s 748 mmHg 96%
    06:00 +25°C° 0 mm 1 m/s 748 mmHg 94%
    07:00 +25°C° 0 mm 1 m/s 748 mmHg 93%
    08:00 +27°C° 0 mm 1 m/s 749 mmHg 83%
    09:00 +30°C° 0 mm 1 m/s 749 mmHg 74%
    10:00 +32°C° 0 mm 1 m/s 749 mmHg 64%
    11:00 +33°C° 0 mm 1 m/s 748 mmHg 62%
    12:00 +33°C° 0 mm 1 m/s 748 mmHg 60%
    13:00 +35°C° 0 mm 2 m/s 747 mmHg 58%
    14:00 +34°C° 0 mm 2 m/s 746 mmHg 61%
    15:00 +32°C° 0 mm 2 m/s 746 mmHg 65%
    16:00 +33°C° 0 mm 3 m/s 745 mmHg 68%
    17:00 +30°C° 0 mm 2 m/s 746 mmHg 75%
    18:00 +29°C° 0 mm 2 m/s 746 mmHg 82%
    19:00 +27°C° 0 mm 2 m/s 747 mmHg 89%
    20:00 +27°C° 0 mm 1 m/s 747 mmHg 91%
    21:00 +27°C° 0 mm 1 m/s 747 mmHg 93%
    22:00 +26°C° 0 mm 1 m/s 748 mmHg 94%
    23:00 +26°C° 0 mm 1 m/s 747 mmHg 95%
    Arată mai mult